Location: Newark
(41.0400°S, 62.7845°W)
Time: 00:22:07
(UTC+00:00)

Vanguard 2 - Pass Details

Date: 04 December 2021
Orbit: 554 x 2935 km, 32.9° (Epoch: 27 January)

Event Time Altitude Azimuth Distance (km) Brightness Sun altitude
Rises 06:52:58 0° 279° (W) 6,762 11.9 -15.2°
Reaches altitude 10° 06:57:46 10° 282° (WNW) 5,633 11.4 -14.6°
Maximum altitude 07:13:47 60° 356° (N) 2,445 9.8 -12.5°
Drops below altitude 10° 07:24:11 10° 72° (ENE) 3,798 11.5 -11.1°
Sets 07:26:46 0° 76° (ENE) 4,509 12.0 -10.8°
